Regional Weather Roundup
Issued by NWS

Home | Current Version | Previous Version | Text Only | Print | Product List | Glossary On
Versions: 1 2 3 4 5 6 7 8 9 10 11 12 13 14 15 16 17 18 19 20 21 22 23 24 25 26 27 28 29 30 31 32 33 34 35 36 37 38 39 40 41 42 43 44 45 46 47 48 49 50
000
ASUS43 KFSD 271802
RWRSD

WEATHER ROUNDUP FOR SOUTH DAKOTA
NATIONAL WEATHER SERVICE SIOUX FALLS SD
100 PM CDT SUN JUL 27 2014

NOTE: "FAIR" INDICATES FEW OR NO CLOUDS BELOW 12,000 FEET WITH NO
SIGNIFICANT WEATHER AND/OR OBSTRUCTIONS TO VISIBILITY.


SDZ001>005-009-010-012>017-271900-
NORTHWEST AND NORTH CENTRAL SOUTH DAKOTA

CITY           SKY/WX    TMP DP  RH WIND       PRES   REMARKS
BUFFALO          N/A     72  53  51 NW14      30.25S
FAITH            N/A     72  54  53 NW18G25   30.28R
MOBRIDGE       PTSUNNY   67  55  65 N13G21    30.22S
$$

SDZ012>016-024>037-041>051-057-063-072>074-271900-
SOUTHWEST AND SOUTH CENTRAL SOUTH DAKOTA

CITY           SKY/WX    TMP DP  RH WIND       PRES   REMARKS
RAPID CTY ARPT SUNNY     76  49  38 N23       30.31F
PIERRE         MOSUNNY   75  55  49 N20       30.22R
CUSTER         SUNNY     76  35  22 W7        30.41S
ELLSWORTH AFB  SUNNY     75  47  36 N13G25    30.31S
PHILIP         MOSUNNY   79  51  37 NW17G24   30.26S
PINE RIDGE     SUNNY     76  51  41 N10       30.32F
WINNER         FAIR      80  54  40 NW16G28   30.22S
$$

SDZ004>011-016>023-039-040-271900-
NORTHEAST SOUTH DAKOTA

CITY           SKY/WX    TMP DP  RH WIND       PRES   REMARKS
ABERDEEN       CLOUDY    64  54  69 N17       30.18R
WATERTOWN      CLOUDY    64  54  69 NW21G31   30.13R
SISSETON         N/A     65  57  75 N20       30.10R
$$

SDZ017-020-022-023-036>040-048>070-271900-
SOUTHEAST SOUTH DAKOTA

CITY           SKY/WX    TMP DP  RH WIND       PRES   REMARKS
SIOUX FALLS    PTSUNNY   70  57  63 N21G29    30.12R
HURON          CLOUDY    71  56  58 NW22G29   30.16R
CHAMBERLAIN    MOSUNNY   75  55  50 NW21G28   30.20R
MITCHELL       PTSUNNY   72  58  61 NW18G28   30.17R
YANKTON        MOSUNNY   73  57  56 NW20      30.15R
$$

ABBREVIATIONS USED IN REMARKS
   TC - TEMPERATURE IN CELSIUS
  WCI - WIND CHILL INDEX
   HX - HEAT INDEX
  VSB - VISIBILITY




USA.gov is the U.S. government's official web portal to all federal, state and local government web resources and services.